Tracking 30101 objects as of 13-Dec-2024
HD Live streaming from Space Station
objects crossing your sky now

STARLINK-30193

Track STARLINK-30193 now!
10-day predictions
STARLINK-30193 is classified as:


NORAD ID: 57414
Int'l Code: 2023-102L
Perigee: 565.5 km
Apogee: 566.7 km
Inclination: 43.0 °
Period: 95.8 minutes
Semi major axis: 6937 km
RCS: Unknown
Launch date: July 20, 2023
Source: United States (US)
Launch site: AIR FORCE WESTERN TEST RANGE (AFWTR)
Your satellite tracking list
Your tracking list is empty




NASA's NSSDC Master Catalog

Two Line Element Set (TLE):
1 57414U 23102L   24347.54461313  .00004959  00000-0  38164-3 0  9998
2 57414  43.0005 185.5659 0000862 296.0696  64.0057 15.02559339 78221
Source of the keplerian elements: AFSPC